• Em Portugal
  • Lista de países
  • Para 7 dias
  • Temperatura da água
  • Mapas de satélite
  • Mapa do tempo
  • Widgets de tempo
  • user-avatar
    Iniciar Sessão

    Previsão horária em Sidorovka

    Hoje, 21 Julho, Sábado

    Tempo Temperatura Precipitação Vento Pressão Humidade
    00:00 +21°C° 0,8 mm 1 m/s 738 mmHg 89%
    01:00 +21°C° 0,8 mm 1 m/s 739 mmHg 90%
    02:00 +21°C° 0,8 mm 1 m/s 739 mmHg 91%
    03:00 +21°C° 0,8 mm 1 m/s 739 mmHg 92%
    04:00 +21°C° 0,8 mm 1 m/s 739 mmHg 93%
    05:00 +21°C° 0,8 mm 1 m/s 739 mmHg 94%
    06:00 +21°C° 0,6 mm 2 m/s 739 mmHg 92%
    07:00 +21°C° 0,6 mm 2 m/s 739 mmHg 90%
    08:00 +23°C° 0,6 mm 2 m/s 739 mmHg 88%
    09:00 +24°C° 0,8 mm 2 m/s 739 mmHg 84%
    10:00 +25°C° 0,8 mm 2 m/s 739 mmHg 80%
    11:00 +26°C° 0,8 mm 3 m/s 739 mmHg 75%
    12:00 +26°C° 1,4 mm 2 m/s 739 mmHg 74%
    13:00 +27°C° 1,4 mm 2 m/s 739 mmHg 73%
    14:00 +27°C° 1,4 mm 2 m/s 739 mmHg 72%
    15:00 +27°C° 1,1 mm 1 m/s 739 mmHg 72%
    16:00 +27°C° 1,1 mm 1 m/s 739 mmHg 73%
    17:00 +27°C° 1,1 mm 1 m/s 738 mmHg 74%
    18:00 +25°C° 0,2 mm 1 m/s 738 mmHg 78%
    19:00 +24°C° 0,2 mm 1 m/s 738 mmHg 83%
    20:00 +23°C° 0,2 mm 1 m/s 738 mmHg 87%
    21:00 +22°C° 0 mm 1 m/s 739 mmHg 88%
    22:00 +22°C° 0 mm 1 m/s 739 mmHg 89%
    23:00 +21°C° 0 mm 1 m/s 739 mmHg 90%

    Amanhã, 22 Julho, Domingo

    Tempo Temperatura Precipitação Vento Pressão Humidade
    00:00 +21°C° 0 mm 1 m/s 739 mmHg 91%
    01:00 +21°C° 0 mm 1 m/s 739 mmHg 91%
    02:00 +21°C° 0 mm 1 m/s 739 mmHg 92%
    03:00 +21°C° 0,1 mm 1 m/s 739 mmHg 92%
    04:00 +21°C° 0,1 mm 1 m/s 739 mmHg 92%
    05:00 +21°C° 0,1 mm 1 m/s 739 mmHg 92%
    06:00 +22°C° 0,1 mm 1 m/s 739 mmHg 89%
    07:00 +24°C° 0,1 mm 1 m/s 739 mmHg 85%
    08:00 +25°C° 0,1 mm 1 m/s 739 mmHg 81%
    09:00 +26°C° 0,2 mm 2 m/s 739 mmHg 78%
    10:00 +26°C° 0,2 mm 2 m/s 739 mmHg 75%
    11:00 +27°C° 0,2 mm 2 m/s 739 mmHg 72%
    12:00 +27°C° 0,5 mm 3 m/s 739 mmHg 73%
    13:00 +27°C° 0,5 mm 4 m/s 739 mmHg 75%
    14:00 +27°C° 0,5 mm 4 m/s 739 mmHg 76%
    15:00 +26°C° 0,5 mm 4 m/s 739 mmHg 79%
    16:00 +26°C° 0,5 mm 4 m/s 739 mmHg 82%
    17:00 +25°C° 0,5 mm 4 m/s 739 mmHg 85%
    18:00 +23°C° 0,6 mm 4 m/s 739 mmHg 87%
    19:00 +23°C° 0,6 mm 4 m/s 739 mmHg 90%
    20:00 +22°C° 0,6 mm 4 m/s 739 mmHg 92%
    21:00 +21°C° 0,4 mm 4 m/s 739 mmHg 93%
    22:00 +21°C° 0,4 mm 4 m/s 739 mmHg 94%
    23:00 +20°C° 0,4 mm 4 m/s 739 mmHg 96%

    Depois de amanhã, 23 Julho, Segunda-feira

    Tempo Temperatura Precipitação Vento Pressão Humidade
    00:00 +20°C° 0,2 mm 4 m/s 739 mmHg 95%
    01:00 +20°C° 0,2 mm 4 m/s 739 mmHg 95%
    02:00 +20°C° 0,2 mm 4 m/s 739 mmHg 95%
    03:00 +20°C° 0,2 mm 4 m/s 739 mmHg 95%
    04:00 +20°C° 0,2 mm 4 m/s 739 mmHg 95%
    05:00 +20°C° 0,2 mm 4 m/s 739 mmHg 95%
    06:00 +20°C° 0,1 mm 4 m/s 739 mmHg 94%
    07:00 +20°C° 0,1 mm 4 m/s 739 mmHg 93%
    08:00 +21°C° 0,1 mm 4 m/s 739 mmHg 93%
    09:00 +21°C° 0,2 mm 4 m/s 740 mmHg 92%
    10:00 +21°C° 0,2 mm 4 m/s 740 mmHg 91%
    11:00 +22°C° 0,2 mm 4 m/s 740 mmHg 89%
    12:00 +22°C° 0,3 mm 4 m/s 740 mmHg 87%
    13:00 +23°C° 0,3 mm 4 m/s 739 mmHg 85%
    14:00 +25°C° 0,3 mm 4 m/s 739 mmHg 83%
    15:00 +25°C° 0,7 mm 4 m/s 739 mmHg 83%
    16:00 +25°C° 0,7 mm 4 m/s 739 mmHg 84%
    17:00 +25°C° 0,7 mm 3 m/s 739 mmHg 84%
    18:00 +24°C° 0,6 mm 3 m/s 740 mmHg 87%
    19:00 +22°C° 0,6 mm 3 m/s 740 mmHg 90%
    20:00 +21°C° 0,6 mm 3 m/s 740 mmHg 92%
    21:00 +21°C° 0,1 mm 3 m/s 740 mmHg 93%
    22:00 +20°C° 0,1 mm 2 m/s 740 mmHg 93%
    23:00 +20°C° 0,1 mm 2 m/s 740 mmHg 94%

    24 Julho, Terça-feira

    Tempo Temperatura Precipitação Vento Pressão Humidade
    00:00 +20°C° 0 mm 2 m/s 740 mmHg 93%
    01:00 +20°C° 0 mm 2 m/s 740 mmHg 93%
    02:00 +19°C° 0 mm 2 m/s 740 mmHg 93%
    03:00 +19°C° 0 mm 2 m/s 740 mmHg 93%
    04:00 +19°C° 0 mm 2 m/s 740 mmHg 93%
    05:00 +20°C° 0 mm 2 m/s 740 mmHg 93%
    06:00 +21°C° 0,1 mm 2 m/s 741 mmHg 89%
    07:00 +24°C° 0,1 mm 2 m/s 741 mmHg 84%
    08:00 +25°C° 0,1 mm 3 m/s 741 mmHg 80%
    09:00 +26°C° 0,4 mm 3 m/s 741 mmHg 75%
    10:00 +27°C° 0,4 mm 3 m/s 741 mmHg 70%
    11:00 +28°C° 0,4 mm 3 m/s 741 mmHg 65%
    12:00 +29°C° 0,5 mm 3 m/s 741 mmHg 65%
    13:00 +29°C° 0,5 mm 3 m/s 741 mmHg 65%
    14:00 +29°C° 0,5 mm 3 m/s 741 mmHg 66%
    15:00 +28°C° 1,1 mm 3 m/s 741 mmHg 71%
    16:00 +27°C° 1,1 mm 3 m/s 741 mmHg 77%
    17:00 +25°C° 1,1 mm 3 m/s 741 mmHg 82%
    18:00 +24°C° 0,3 mm 3 m/s 742 mmHg 85%
    19:00 +22°C° 0,3 mm 3 m/s 742 mmHg 87%
    20:00 +21°C° 0,3 mm 3 m/s 742 mmHg 90%
    21:00 +21°C° 0,1 mm 3 m/s 742 mmHg 91%
    22:00 +21°C° 0,1 mm 3 m/s 742 mmHg 92%
    23:00 +20°C° 0,1 mm 3 m/s 742 mmHg 93%

    25 Julho, Quarta-feira

    Tempo Temperatura Precipitação Vento Pressão Humidade
    00:00 +20°C° 0,2 mm 3 m/s 742 mmHg 94%
    01:00 +19°C° 0,2 mm 3 m/s 742 mmHg 95%
    02:00 +19°C° 0,2 mm 3 m/s 742 mmHg 96%
    03:00 +19°C° 0,1 mm 3 m/s 742 mmHg 96%
    04:00 +19°C° 0,1 mm 3 m/s 742 mmHg 97%
    05:00 +19°C° 0,1 mm 3 m/s 742 mmHg 97%
    06:00 +19°C° 0 mm 3 m/s 742 mmHg 95%
    07:00 +20°C° 0 mm 3 m/s 742 mmHg 93%
    08:00 +21°C° 0 mm 4 m/s 742 mmHg 92%
    09:00 +22°C° 0,3 mm 4 m/s 743 mmHg 87%
    10:00 +25°C° 0,3 mm 4 m/s 743 mmHg 82%
    11:00 +26°C° 0,3 mm 4 m/s 743 mmHg 77%
    12:00 +27°C° 0,8 mm 4 m/s 743 mmHg 74%
    13:00 +27°C° 0,8 mm 4 m/s 743 mmHg 71%
    14:00 +28°C° 0,8 mm 4 m/s 743 mmHg 68%
    15:00 +28°C° 0,8 mm 4 m/s 743 mmHg 71%
    16:00 +27°C° 0,8 mm 3 m/s 743 mmHg 75%
    17:00 +27°C° 0,8 mm 3 m/s 743 mmHg 79%
    18:00 +26°C° 0,4 mm 3 m/s 744 mmHg 82%
    19:00 +24°C° 0,4 mm 3 m/s 744 mmHg 86%
    20:00 +22°C° 0,4 mm 3 m/s 744 mmHg 89%
    21:00 +21°C° 0 mm 3 m/s 744 mmHg 90%
    22:00 +21°C° 0 mm 3 m/s 745 mmHg 91%
    23:00 +21°C° 0 mm 3 m/s 745 mmHg 93%

    26 Julho, Quinta-feira

    Tempo Temperatura Precipitação Vento Pressão Humidade
    00:00 +20°C° 0,1 mm 3 m/s 745 mmHg 93%
    01:00 +20°C° 0,1 mm 3 m/s 745 mmHg 94%
    02:00 +20°C° 0,1 mm 3 m/s 745 mmHg 94%
    03:00 +20°C° 0,1 mm 3 m/s 745 mmHg 94%
    04:00 +20°C° 0,1 mm 3 m/s 746 mmHg 94%
    05:00 +20°C° 0,1 mm 3 m/s 746 mmHg 94%
    06:00 +21°C° 0 mm 3 m/s 746 mmHg 91%
    07:00 +24°C° 0 mm 3 m/s 746 mmHg 87%
    08:00 +25°C° 0 mm 4 m/s 746 mmHg 84%
    09:00 +26°C° 0,1 mm 4 m/s 746 mmHg 79%
    10:00 +27°C° 0,1 mm 4 m/s 746 mmHg 75%
    11:00 +28°C° 0,1 mm 5 m/s 746 mmHg 70%
    12:00 +28°C° 0,1 mm 5 m/s 746 mmHg 69%
    13:00 +29°C° 0,1 mm 5 m/s 746 mmHg 67%
    14:00 +29°C° 0,1 mm 5 m/s 746 mmHg 66%
    15:00 +29°C° 0 mm 5 m/s 747 mmHg 69%
    16:00 +29°C° 0 mm 4 m/s 747 mmHg 72%
    17:00 +29°C° 0 mm 4 m/s 747 mmHg 74%
    18:00 +27°C° 0 mm 4 m/s 747 mmHg 78%
    19:00 +26°C° 0 mm 4 m/s 747 mmHg 81%
    20:00 +25°C° 0 mm 4 m/s 747 mmHg 85%
    21:00 +23°C° 0 mm 4 m/s 747 mmHg 85%
    22:00 +23°C° 0 mm 4 m/s 747 mmHg 86%
    23:00 +22°C° 0 mm 4 m/s 747 mmHg 86%
    Mostrar mais